[[{"header":{"parameterUnit":"m.s-1","parameterCategory":2,"la1":30.2991,"la2":30.254,"lo1":-89.0895,"lo2":-89.0444,"dy":0.0017,"dx":0.0017,"nx":28,"ny":28,"refTime":"2023-10-26T21:00:00:Z","depth":"0","parameterNumber":2,"parameterNumberName":"U-component_of_CURRENTS"},"data":[0,0,0,0,0,0,0,0,0,0,0,0,0,0,0,0,0,0,0,0,0,0,0,0,0,0,0,0,0,0,0,0,0,0,0,0,0,0,0,0,0,0,0,0,0,0,0,0,0,0,0,0,0,0,0,0,0,0,0.3044,0.3044,0,0.3049,0.3049,0.3049,0.3034,0.3034,0.3034,0.3034,0.3011,0.3011,0.301,0,0,0,0,0,0,0,0,0,0,0,0,0,0.3003,0.3003,0.3044,0.3044,0.3045,0.3049,0.3049,0.3049,0.3034,0.3034,0.3034,0.3034,0.3011,0.3011,0.301,0,0,0,0,0,0,0,0,0,0,0,0,0,0.3013,0.3003,0.3044,0.304,0.304,0.3049,0.3049,0.3049,0.3034,0.3034,0.3034,0.3033,0.3012,0.3011,0.301,0.3012,0,0,0.3008,0.3008,0,0,0,0,0,0,0,0,0.3012,0.3014,0.304,0.3041,0.3041,0.3043,0.3026,0.3036,0.3034,0.3033,0.3034,0.3033,0.3022,0.302,0.3018,0.3011,0.301,0.3008,0.3008,0.3008,0.3007,0,0,0,0,0,0,0,0.3011,0.3013,0.3043,0.3041,0.3041,0.3032,0.3033,0.3028,0.3026,0.3033,0.3033,0.3039,0.3021,0.3018,0.3017,0.3009,0.3008,0.3008,0.3007,0.3007,0.3009,0.3009,0,0,0,0,0,0,0.3018,0.3013,0.3043,0.3044,0.3029,0.3033,0.3034,0.304,0.3027,0.3026,0.3039,0.3038,0.302,0.3018,0.3016,0.3025,0.3008,0.3007,0.3007,0.3008,0.3009,0.3009,0,0,0,0,0,0,0.3017,0.3021,0.3043,0.3031,0.3033,0.3035,0.3041,0.3041,0.304,0.3032,0.3029,0.3039,0.3019,0.3017,0.3009,0.3024,0.3007,0.3006,0.3008,0.3008,0.3009,0.3038,0,0,0,0,0,0,0.3016,0.3021,0.3026,0.3031,0.3034,0.3045,0.3042,0.3041,0.3045,0.3044,0.3031,0.3029,0.3019,0.301,0.3008,0.3023,0.3006,0.3007,0.3008,0.3009,0.3036,0.3039,0.3042,0,0,0,0,0,0.3015,0.302,0.3026,0.303,0.3042,0.3046,0.3045,0.3044,0.3045,0.3042,0.3034,0.3029,0.3014,0.3009,0.3007,0.3022,0.3007,0.3008,0.3009,0.3035,0.3039,0.3042,0,0,0,0,0,0,0.2999,0.302,0.3026,0.3036,0.3041,0.3044,0.3046,0.3047,0.3039,0.304,0.3029,0.3026,0.3027,0.3018,0.3013,0.3025,0.3012,0.3013,0.3033,0.3036,0.3039,0.3067,0.3005,0,0,0,0,0,0.3001,0.3014,0.3027,0.3035,0.3041,0.3045,0.3048,0.3048,0.3045,0.3042,0.3033,0.3029,0.303,0.3027,0.3022,0.3024,0.3053,0.3034,0.3037,0.304,0.3061,0.3121,0.3133,0.3012,0.3012,0.3012,0,0,0.2997,0.3012,0.3018,0.3033,0.304,0.3049,0.3045,0.3051,0.3058,0.3041,0.3041,0.3036,0.3032,0.3036,0.3036,0.303,0.3086,0.3041,0.3043,0.3064,0.3124,0.3136,0.3147,0.3013,0.3013,0.3013,0,0,0.2997,0.3011,0.3022,0.3032,0.3047,0.3052,0.3056,0.306,0.3059,0.3061,0.3056,0.3062,0.3052,0.3058,0.3061,0.3078,0.3099,0.3072,0.3109,0.3167,0.3179,0.3189,0.3232,0.3246,0.3074,0.3074,0.3074,0,0.299,0.301,0.3023,0.3038,0.3047,0.3055,0.3065,0.307,0.3068,0.3081,0.3063,0.3085,0.307,0.3101,0.3102,0.3087,0.3121,0.3095,0.3174,0.3184,0.3194,0.3236,0.3251,0.3075,0.3075,0.3075,0.3075,0,0.3002,0.3017,0.3025,0.3051,0.3059,0.3069,0.3082,0.3092,0.3096,0.3109,0.3135,0.3123,0.3147,0.3135,0.3121,0.3183,0.3184,0.3171,0.317,0.3209,0.3249,0.3265,0.3077,0.3077,0.3076,0.3076,0,0,0.298,0.3024,0.3026,0.3045,0.3068,0.3078,0.3099,0.3126,0.3164,0.3161,0.3213,0.3203,0.3218,0.3223,0.3212,0.325,0.3331,0.3243,0.3245,0.3294,0.3463,0.3457,0.3473,0.334,0.3343,0.3345,0.3461,0,0.2981,0.3015,0.3033,0.306,0.3078,0.31,0.3119,0.315,0.3184,0.3235,0.325,0.3286,0.3246,0.3266,0.3302,0.3339,0.3375,0.3301,0.3412,0.3415,0.3412,0.3491,0.3453,0.3553,0.3475,0.3478,0.348,0,0.2981,0.3008,0.3031,0.3079,0.3088,0.3103,0.3164,0.3188,0.3265,0.3298,0.3356,0.3377,0.344,0.3392,0.3493,0.3454,0.3464,0.3477,0.3482,0.3483,0.3438,0.3502,0.3583,0.35,0.3503,0.3501,0.35,0,0.2961,0.3005,0.3024,0.3038,0.3088,0.3107,0.3138,0.3206,0.3246,0.3355,0.3414,0.3488,0.354,0.3583,0.3612,0.3568,0.3727,0.3666,0.3664,0.3662,0.3656,0.365,0.3681,0.3731,0.3731,0.3731,0.373,0,0.2953,0.2971,0.302,0.3032,0.3058,0.3103,0.3155,0.3206,0.3303,0.3384,0.3448,0.3528,0.3594,0.368,0.3681,0.375,0.3789,0.3705,0.3709,0.3661,0.3654,0.3601,0.3554,0.3735,0.3734,0.3733,0.3732,0,0.2917,0.2952,0.2975,0.3029,0.3044,0.3063,0.3144,0.3195,0.33,0.3418,0.3457,0.3592,0.373,0.3789,0.3884,0.3846,0.3807,0.3892,0.3828,0.3822,0.3713,0.3669,0.3554,0.3437,0.3917,0.3917,0.3918,0,0.2897,0.2906,0.2953,0.2961,0.298,0.3026,0.3054,0.3165,0.3233,0.3453,0.3504,0.3684,0.3808,0.3961,0.398,0.4033,0.3857,0.3952,0.3845,0.3738,0.3693,0.3483,0.3376,0.3844,0.3844,0.3844,0.3844,0,0.2848,0.2863,0.2881,0.29,0.2925,0.2968,0.3036,0.3085,0.3247,0.337,0.3541,0.3672,0.3888,0.3955,0.4041,0.4039,0.3795,0.3951,0.3871,0.3681,0.3427,0.3306,0.372,0.3844,0.3844,0.3844,0.3844,0.3844,0.2793,0.2787,0.2808,0.2817,0.2851,0.2891,0.2903,0.3013,0.3119,0.3286,0.3476,0.3651,0.3872,0.4015,0.3984,0.3911,0.3805,0.3796,0.3767,0.3572,0.341,0.3819,0.3921,0.3921,0.3922,0.3922,0.3922,0,0.27,0.2711,0.2725,0.2733,0.2739,0.2797,0.2864,0.2871,0.2957,0.3182,0.3335,0.3615,0.3728,0.3832,0.3889,0.3766,0.3525,0.3644,0.3359,0.327,0.3701,0.3652,0.3662,0.3662,0.3662,0.3662,0.3662,0.3662,0.2651,0.2627,0.2637,0.2608,0.2624,0.2603,0.262,0.2661,0.2777,0.2949,0.3124,0.3324,0.3623,0.3795,0.3736,0.3634,0.3317,0.3202,0.3089,0.345,0.346,0.3469,0.3411,0.337,0.337,0.2541,0.2535,0.2531]},{"header":{"parameterUnit":"m.s-1","parameterCategory":2,"la1":30.2991,"la2":30.254,"lo1":-89.0895,"lo2":-89.0444,"dy":0.0017,"dx":0.0017,"nx":28,"ny":28,"refTime":"2023-10-26T21:00:00:Z","depth":"0","parameterNumber":3,"parameterNumberName":"V-component_of_CURRENTS"},"data":[0,0,0,0,0,0,0,0,0,0,0,0,0,0,0,0,0,0,0,0,0,0,0,0,0,0,0,0,0,0,0,0,0,0,0,0,0,0,0,0,0,0,0,0,0,0,0,0,0,0,0,0,0,0,0,0,0,0,-0.0255,-0.0256,0,-0.0357,-0.0359,-0.0361,-0.0426,-0.0426,-0.0426,-0.0425,-0.054,-0.0543,-0.0546,0,0,0,0,0,0,0,0,0,0,0,0,0,-0.0175,-0.0176,-0.0255,-0.0256,-0.0257,-0.0357,-0.0359,-0.0361,-0.0426,-0.0426,-0.0426,-0.0425,-0.0539,-0.0542,-0.0546,0,0,0,0,0,0,0,0,0,0,0,0,0,-0.0241,-0.0176,-0.0255,-0.0298,-0.0302,-0.0357,-0.0359,-0.0361,-0.0426,-0.0426,-0.0426,-0.0425,-0.0538,-0.0542,-0.0547,-0.0577,0,0,-0.0561,-0.0563,0,0,0,0,0,0,0,0,-0.0237,-0.0244,-0.0291,-0.0295,-0.03,-0.0375,-0.0372,-0.0432,-0.0426,-0.0384,-0.0425,-0.0425,-0.0483,-0.0492,-0.0518,-0.0582,-0.0587,-0.0561,-0.0564,-0.0566,-0.0567,0,0,0,0,0,0,0,-0.0232,-0.0241,-0.0301,-0.0291,-0.0297,-0.0332,-0.0341,-0.0385,-0.0436,-0.0388,-0.0391,-0.0395,-0.0486,-0.0513,-0.0521,-0.0589,-0.0561,-0.0565,-0.0568,-0.057,-0.0687,-0.0687,0,0,0,0,0,0,-0.0207,-0.0236,-0.0297,-0.0303,-0.0262,-0.0332,-0.0343,-0.0355,-0.0436,-0.0447,-0.0395,-0.0398,-0.0505,-0.0515,-0.0525,-0.0557,-0.0566,-0.057,-0.0573,-0.0686,-0.0687,-0.0687,0,0,0,0,0,0,-0.0205,-0.0212,-0.0293,-0.0268,-0.028,-0.0333,-0.0346,-0.0357,-0.0377,-0.044,-0.0453,-0.0403,-0.0506,-0.0519,-0.0568,-0.0562,-0.0572,-0.0577,-0.0686,-0.0686,-0.0687,-0.0626,0,0,0,0,0,0,-0.0203,-0.0211,-0.021,-0.0266,-0.028,-0.0314,-0.0346,-0.0358,-0.0378,-0.0382,-0.0451,-0.0463,-0.0507,-0.0561,-0.0573,-0.0568,-0.058,-0.0685,-0.0686,-0.0687,-0.0627,-0.0624,-0.0621,0,0,0,0,0,-0.02,-0.0199,-0.0209,-0.0216,-0.0277,-0.0313,-0.0324,-0.0365,-0.0378,-0.0384,-0.0439,-0.046,-0.0573,-0.0566,-0.0579,-0.0576,-0.0685,-0.0686,-0.0687,-0.0629,-0.0625,-0.0621,0,0,0,0,0,0,-0.0166,-0.0207,-0.0219,-0.0231,-0.0261,-0.0322,-0.033,-0.0356,-0.0406,-0.041,-0.0471,-0.0487,-0.0528,-0.0562,-0.0552,-0.0612,-0.0629,-0.0633,-0.0581,-0.0577,-0.0574,-0.0525,-0.0584,0,0,0,0,0,-0.0154,-0.0164,-0.0206,-0.0214,-0.0225,-0.0274,-0.0292,-0.0319,-0.0368,-0.0389,-0.044,-0.0494,-0.0543,-0.0567,-0.0617,-0.065,-0.065,-0.0656,-0.0652,-0.0649,-0.0619,-0.0625,-0.0618,-0.0689,-0.0689,-0.0689,0,0,-0.0144,-0.0165,-0.0172,-0.0207,-0.0235,-0.025,-0.0286,-0.0308,-0.0322,-0.0394,-0.0433,-0.0487,-0.0551,-0.0593,-0.0613,-0.0619,-0.0631,-0.065,-0.0647,-0.0618,-0.0624,-0.0617,-0.061,-0.069,-0.069,-0.069,0,0,-0.012,-0.0144,-0.0139,-0.0161,-0.019,-0.0225,-0.0224,-0.0278,-0.0302,-0.0347,-0.0402,-0.0447,-0.0526,-0.0568,-0.0599,-0.0607,-0.0617,-0.0625,-0.0567,-0.0573,-0.0566,-0.056,-0.0551,-0.0545,-0.062,-0.062,-0.062,0,-0.0098,-0.0103,-0.0143,-0.0143,-0.0151,-0.0207,-0.0201,-0.0241,-0.0306,-0.031,-0.0348,-0.0445,-0.0511,-0.0541,-0.0554,-0.0596,-0.0592,-0.0575,-0.0565,-0.0559,-0.0554,-0.0547,-0.054,-0.0618,-0.0618,-0.0618,-0.0618,0,-0.0074,-0.0074,-0.0073,-0.0092,-0.011,-0.0116,-0.0164,-0.0184,-0.0222,-0.0254,-0.029,-0.0383,-0.0428,-0.0467,-0.0521,-0.0517,-0.0523,-0.0561,-0.0565,-0.0542,-0.0537,-0.0532,-0.0613,-0.0614,-0.0615,-0.0616,0,0,-0.0024,-0.0048,-0.0045,-0.0037,-0.0079,-0.0089,-0.0106,-0.0124,-0.0103,-0.0186,-0.0164,-0.028,-0.0311,-0.0348,-0.0416,-0.0432,-0.0419,-0.0473,-0.0475,-0.0445,-0.0408,-0.0418,-0.0413,-0.0448,-0.0447,-0.0446,-0.0418,0,0.0016,0.0034,0.0007,0.0023,0.0031,-0.0013,-0.0019,-0.0043,-0.0065,-0.0063,-0.0144,-0.0168,-0.0272,-0.0288,-0.0321,-0.0384,-0.04,-0.0421,-0.0449,-0.0449,-0.0446,-0.0406,-0.0367,-0.0339,-0.0413,-0.0412,-0.0411,0,0.0058,0.0066,0.0095,0.0099,0.01,0.0097,0.0113,0.0103,0.0091,0.0084,0.0056,-0.0008,-0.0055,-0.0147,-0.0224,-0.0226,-0.0307,-0.0363,-0.0364,-0.0382,-0.0448,-0.0376,-0.0326,-0.0538,-0.0403,-0.0404,-0.0404,0,0.0121,0.013,0.016,0.0157,0.0148,0.0163,0.0155,0.0155,0.0181,0.0187,0.0229,0.0147,0.0127,0.0023,-0.0117,-0.0162,-0.0177,-0.0262,-0.0344,-0.0346,-0.032,-0.0321,-0.0458,-0.0308,-0.0308,-0.0308,-0.0308,0,0.0174,0.0201,0.0194,0.0211,0.0261,0.0229,0.0293,0.0291,0.032,0.0403,0.0311,0.0368,0.0172,0.0122,-0.003,-0.0142,-0.0114,-0.0303,-0.0331,-0.0301,-0.03,-0.0492,-0.0613,-0.0307,-0.0308,-0.0308,-0.0308,0,0.0238,0.0231,0.0272,0.0281,0.0293,0.0328,0.0369,0.0425,0.0453,0.0569,0.0576,0.054,0.0503,0.0323,0.0173,-0.0011,-0.0239,-0.0192,-0.0136,-0.0158,-0.0465,-0.0582,-0.0699,-0.0796,-0.0277,-0.0277,-0.0277,0,0.0272,0.0299,0.0332,0.0368,0.0376,0.0424,0.047,0.0488,0.0567,0.0698,0.077,0.076,0.0821,0.0603,0.0282,0.005,-0.0177,-0.0132,-0.0239,-0.0448,-0.06,-0.0689,-0.077,-0.018,-0.0179,-0.0179,-0.0178,0,0.0344,0.0354,0.0385,0.0457,0.051,0.058,0.0651,0.0736,0.0815,0.0957,0.1132,0.12,0.1005,0.0784,0.0418,0.0224,-0.0273,-0.0129,-0.0356,-0.0531,-0.0621,-0.0738,-0.0234,-0.0172,-0.0173,-0.0173,-0.0174,-0.0174,0.0402,0.0439,0.0482,0.0554,0.0624,0.0742,0.0838,0.0963,0.1147,0.1395,0.1412,0.1601,0.1222,0.0749,0.0421,-0.02,-0.0229,-0.0409,-0.0528,-0.0594,-0.071,-0.0187,-0.0163,-0.0164,-0.0164,-0.0164,-0.0165,0,0.0475,0.0511,0.0578,0.0673,0.0774,0.0794,0.097,0.1105,0.1378,0.1622,0.1813,0.1795,0.1314,0.0765,-0.0073,-0.0531,-0.0708,-0.0776,-0.0907,-0.097,-0.05,-0.0523,-0.0562,-0.0562,-0.0561,-0.0561,-0.0561,-0.0561,0.0516,0.059,0.062,0.0791,0.087,0.104,0.1161,0.1392,0.1598,0.1946,0.2113,0.2198,0.1799,0.033,-0.0718,-0.0958,-0.1278,-0.1318,-0.1517,-0.1227,-0.1203,-0.118,-0.1232,-0.1419,-0.142,-0.1921,-0.1926,-0.193]}],[{"header":{"parameterUnit":"m.s-1","parameterCategory":2,"la1":30.2991,"la2":30.254,"lo1":-89.0895,"lo2":-89.0444,"dy":0.0017,"dx":0.0017,"nx":28,"ny":28,"refTime":"2023-10-26T21:00:00:Z","depth":"2","parameterNumber":2,"parameterNumberName":"U-component_of_CURRENTS"},"data":[0,0,0,0,0,0,0,0,0,0,0,0,0,0,0,0,0,0,0,0,0,0,0,0,0,0,0,0,0,0,0,0,0,0,0,0,0,0,0,0,0,0,0,0,0,0,0,0,0,0,0,0,0,0,0,0,0,0,0.264,0.2641,0,0.2682,0.2682,0.2681,0.2698,0.2699,0.2701,0.2702,0.2705,0.2704,0.2703,0,0,0,0,0,0,0,0,0,0,0,0,0,0.2518,0.2519,0.264,0.2642,0.2643,0.2682,0.2682,0.2681,0.2698,0.2699,0.2701,0.2702,0.2705,0.2704,0.2703,0,0,0,0,0,0,0,0,0,0,0,0,0,0.2553,0.252,0.2639,0.2667,0.2671,0.2682,0.2681,0.2681,0.2698,0.2699,0.2701,0.2703,0.2706,0.2704,0.2702,0.2656,0,0,0.2698,0.2697,0,0,0,0,0,0,0,0,0.2551,0.2556,0.2661,0.2665,0.267,0.2699,0.2641,0.2675,0.2697,0.2672,0.2702,0.2704,0.2707,0.2706,0.269,0.2657,0.2657,0.2698,0.2697,0.2696,0.2695,0,0,0,0,0,0,0,0.2549,0.2554,0.2642,0.2663,0.2669,0.266,0.2665,0.2646,0.2667,0.2675,0.268,0.2706,0.2708,0.2691,0.269,0.2657,0.2698,0.2696,0.2695,0.2695,0.2736,0.2738,0,0,0,0,0,0,0.2573,0.2552,0.2641,0.2645,0.263,0.2662,0.2667,0.2676,0.2669,0.2674,0.2705,0.2708,0.2693,0.2692,0.269,0.2762,0.2696,0.2694,0.2694,0.2734,0.2737,0.2739,0,0,0,0,0,0,0.257,0.258,0.2639,0.2612,0.2621,0.2664,0.2672,0.2677,0.2682,0.2695,0.2696,0.2712,0.2694,0.2693,0.2702,0.2757,0.2694,0.2692,0.2732,0.2735,0.2738,0.2823,0,0,0,0,0,0,0.2566,0.2578,0.2588,0.2613,0.2624,0.2659,0.2672,0.2677,0.2702,0.2705,0.27,0.2701,0.2696,0.2705,0.2701,0.2754,0.2691,0.2729,0.2733,0.2737,0.2818,0.2829,0.2838,0,0,0,0,0,0.2561,0.2591,0.2587,0.2599,0.2637,0.2661,0.2663,0.269,0.2701,0.2699,0.271,0.2702,0.2728,0.2704,0.2699,0.2753,0.2727,0.2732,0.2737,0.2813,0.2827,0.2838,0,0,0,0,0,0,0.2555,0.2597,0.2594,0.2636,0.2648,0.267,0.269,0.2695,0.2696,0.271,0.2703,0.2704,0.274,0.2727,0.2701,0.278,0.2736,0.274,0.2796,0.2808,0.2818,0.2825,0.269,0,0,0,0,0,0.2554,0.2578,0.2606,0.2635,0.2647,0.2659,0.2674,0.2689,0.2704,0.2707,0.2709,0.2725,0.2749,0.2762,0.2766,0.2787,0.2773,0.2828,0.2839,0.2847,0.2851,0.2868,0.288,0.2754,0.2754,0.2754,0,0,0.2556,0.259,0.2599,0.2634,0.2645,0.2667,0.2669,0.2703,0.2728,0.2706,0.2737,0.2748,0.276,0.2802,0.2819,0.2802,0.2879,0.2853,0.2861,0.286,0.2874,0.2886,0.2896,0.2757,0.2757,0.2756,0,0,0.2573,0.2602,0.2615,0.2637,0.2676,0.2688,0.2701,0.2724,0.2742,0.2762,0.2778,0.282,0.2828,0.2867,0.2885,0.2947,0.2926,0.2963,0.3025,0.3042,0.3052,0.306,0.3068,0.3077,0.2976,0.2976,0.2976,0,0.257,0.2599,0.2622,0.2649,0.2683,0.27,0.2722,0.2741,0.2767,0.2793,0.2788,0.2862,0.2865,0.2951,0.2985,0.2973,0.297,0.2977,0.3054,0.3062,0.307,0.3075,0.3084,0.2981,0.298,0.298,0.298,0,0.2592,0.262,0.2641,0.2675,0.2705,0.2737,0.2777,0.2802,0.2829,0.2855,0.2933,0.2953,0.3002,0.3029,0.3023,0.3106,0.3083,0.3057,0.302,0.3087,0.3089,0.3096,0.2988,0.2986,0.2985,0.2983,0,0,0.2565,0.2635,0.264,0.2668,0.2729,0.2758,0.281,0.2862,0.2914,0.2955,0.3026,0.3091,0.3115,0.3138,0.3161,0.319,0.3241,0.3153,0.3152,0.3155,0.3275,0.326,0.3265,0.3227,0.3229,0.323,0.3258,0,0.2563,0.2613,0.2655,0.2712,0.2743,0.2797,0.2848,0.2908,0.2957,0.3028,0.3095,0.3163,0.3157,0.3198,0.3231,0.323,0.3262,0.3235,0.3213,0.3212,0.3186,0.3274,0.3053,0.3059,0.3264,0.3265,0.3266,0,0.2561,0.2603,0.2652,0.2744,0.2764,0.2806,0.2907,0.296,0.3063,0.3109,0.3198,0.3234,0.3316,0.3287,0.3337,0.3319,0.3307,0.3303,0.3303,0.3262,0.3211,0.3024,0.3064,0.3278,0.3277,0.3276,0.3275,0,0.2537,0.2605,0.265,0.2684,0.2783,0.2826,0.2882,0.2982,0.3051,0.3168,0.3224,0.3315,0.3371,0.3375,0.3374,0.3351,0.341,0.3367,0.3351,0.3349,0.3142,0.312,0.3401,0.3401,0.3401,0.34,0.34,0,0.2532,0.2574,0.2644,0.2684,0.2754,0.2827,0.2919,0.2993,0.311,0.3202,0.3271,0.3355,0.3392,0.3429,0.3405,0.3412,0.3432,0.3382,0.3367,0.3168,0.3149,0.3315,0.3305,0.3401,0.3401,0.3401,0.3401,0,0.2505,0.2552,0.2626,0.2723,0.2752,0.2813,0.2939,0.3,0.3113,0.3234,0.3275,0.3395,0.3441,0.3465,0.3483,0.3457,0.3453,0.3448,0.3219,0.3179,0.3367,0.3361,0.3425,0.3425,0.3425,0.3425,0.3425,0,0.2482,0.2523,0.2642,0.2682,0.273,0.2815,0.2866,0.2996,0.3067,0.3253,0.3305,0.3407,0.3447,0.3488,0.3477,0.3453,0.3475,0.3231,0.3155,0.3397,0.3375,0.3369,0.3364,0.2907,0.2903,0.2899,0.2897,0,0.2454,0.2518,0.2571,0.2657,0.2721,0.2792,0.2878,0.2924,0.3077,0.3143,0.3245,0.3289,0.3401,0.3299,0.3318,0.3267,0.3215,0.3163,0.3467,0.2956,0.2917,0.2894,0.2903,0.2866,0.2869,0.2871,0.2873,0.2874,0.2419,0.2453,0.2531,0.2603,0.2682,0.2728,0.2736,0.2813,0.2871,0.2931,0.3076,0.3061,0.3135,0.3052,0.2962,0.2917,0.3126,0.2966,0.2972,0.2983,0.2939,0.2905,0.2842,0.2844,0.2847,0.2849,0.2851,0,0.2332,0.2392,0.2462,0.2543,0.2574,0.2654,0.2707,0.2654,0.2635,0.2746,0.2776,0.257,0.2547,0.2608,0.2528,0.2548,0.247,0.2415,0.229,0.2327,0.2359,0.2276,0.2006,0.2002,0.1999,0.1996,0,0,0.2298,0.2314,0.2352,0.238,0.2444,0.2427,0.2416,0.2356,0.2388,0.2275,0.2272,0.2453,0.2586,0.2262,0.224,0.2116,0.2187,0.203,0.2728,0.2624,0.265,0.272,0.2643,0,0,0,0,0]},{"header":{"parameterUnit":"m.s-1","parameterCategory":2,"la1":30.2991,"la2":30.254,"lo1":-89.0895,"lo2":-89.0444,"dy":0.0017,"dx":0.0017,"nx":28,"ny":28,"refTime":"2023-10-26T21:00:00:Z","depth":"2","parameterNumber":3,"parameterNumberName":"V-component_of_CURRENTS"},"data":[0,0,0,0,0,0,0,0,0,0,0,0,0,0,0,0,0,0,0,0,0,0,0,0,0,0,0,0,0,0,0,0,0,0,0,0,0,0,0,0,0,0,0,0,0,0,0,0,0,0,0,0,0,0,0,0,0,0,0.0093,0.0092,0,0.0028,0.0028,0.0027,-0.004,-0.0041,-0.0042,-0.0043,-0.0154,-0.0156,-0.0158,0,0,0,0,0,0,0,0,0,0,0,0,0,0.0108,0.0108,0.0093,0.0092,0.0092,0.0029,0.0028,0.0027,-0.004,-0.0041,-0.0042,-0.0043,-0.0153,-0.0156,-0.0158,0,0,0,0,0,0,0,0,0,0,0,0,0,0.0077,0.0108,0.0093,0.0052,0.0047,0.0029,0.0027,0.0026,-0.004,-0.0041,-0.0042,-0.0044,-0.0152,-0.0155,-0.0159,-0.0154,0,0,-0.0169,-0.017,0,0,0,0,0,0,0,0,0.0079,0.0077,0.0058,0.0054,0.005,0.0002,-0.0008,-0.0036,-0.004,-0.0008,-0.0043,-0.0044,-0.0104,-0.0112,-0.0122,-0.0159,-0.0164,-0.0169,-0.0171,-0.0172,-0.0173,0,0,0,0,0,0,0,0.0081,0.0079,0.0066,0.0058,0.0052,0.0019,0.0013,-0.0014,-0.005,-0.0011,-0.0016,-0.0021,-0.0108,-0.0119,-0.0125,-0.0166,-0.0169,-0.0172,-0.0174,-0.0175,-0.0242,-0.0241,0,0,0,0,0,0,0.0096,0.0081,0.0068,0.0064,0.0063,0.002,0.0014,0.0017,-0.0049,-0.006,-0.0019,-0.0023,-0.0112,-0.0121,-0.0129,-0.016,-0.0172,-0.0175,-0.0177,-0.0242,-0.0242,-0.0241,0,0,0,0,0,0,0.0097,0.0096,0.0071,0.0071,0.0066,0.0021,0.0026,0.0017,0.0001,-0.0055,-0.0067,-0.0026,-0.0114,-0.0125,-0.0152,-0.0164,-0.0177,-0.018,-0.0242,-0.0242,-0.0241,-0.0201,0,0,0,0,0,0,0.0098,0.0097,0.0101,0.0073,0.0067,0.006,0.0027,0.0017,0.0001,-0.0005,-0.0065,-0.0076,-0.0116,-0.0147,-0.0155,-0.0168,-0.0183,-0.0242,-0.0242,-0.0241,-0.0202,-0.0199,-0.0196,0,0,0,0,0,0.0098,0.0108,0.0102,0.01,0.0076,0.0061,0.0055,0.0017,0.0002,-0.0002,-0.0039,-0.0075,-0.0151,-0.0148,-0.0159,-0.0173,-0.0242,-0.0242,-0.0242,-0.0204,-0.02,-0.0196,0,0,0,0,0,0,0.0111,0.0102,0.0094,0.01,0.0084,0.005,0.0042,0.0024,-0.0006,-0.0014,-0.0065,-0.0079,-0.0107,-0.0139,-0.0135,-0.019,-0.0205,-0.0207,-0.0173,-0.0169,-0.0166,-0.0137,-0.0185,0,0,0,0,0,0.0121,0.0129,0.0111,0.0115,0.011,0.0081,0.007,0.0048,0.0019,0.0004,-0.0036,-0.0078,-0.0111,-0.0138,-0.0168,-0.0195,-0.021,-0.0213,-0.021,-0.0207,-0.0189,-0.0211,-0.0208,-0.024,-0.024,-0.024,0,0,0.0127,0.0123,0.0127,0.0119,0.0103,0.0101,0.007,0.0058,0.0052,-0.0002,-0.0026,-0.0063,-0.0111,-0.0143,-0.0161,-0.0175,-0.0208,-0.0206,-0.0204,-0.0187,-0.021,-0.0207,-0.0204,-0.0239,-0.0239,-0.024,0,0,0.0145,0.0141,0.0155,0.0147,0.0132,0.0115,0.0116,0.0087,0.0067,0.0048,0.0006,-0.0029,-0.0083,-0.0122,-0.0147,-0.0142,-0.0183,-0.0163,-0.0137,-0.0159,-0.0156,-0.0154,-0.0178,-0.0178,-0.0173,-0.0173,-0.0173,0,0.0152,0.0169,0.0154,0.0162,0.0158,0.0127,0.0135,0.0116,0.0079,0.008,0.0045,-0.002,-0.0071,-0.0101,-0.0111,-0.0136,-0.0153,-0.0149,-0.0154,-0.0152,-0.015,-0.0176,-0.0176,-0.0171,-0.0171,-0.0171,-0.0171,0,0.0178,0.0191,0.0196,0.0201,0.0193,0.0196,0.0172,0.0165,0.0139,0.0124,0.0096,0.0025,-0.001,-0.0047,-0.0083,-0.0102,-0.0119,-0.0139,-0.0161,-0.0145,-0.0173,-0.0174,-0.0168,-0.0168,-0.0169,-0.0169,0,0,0.0206,0.0215,0.022,0.023,0.0216,0.0215,0.0214,0.0215,0.0236,0.0176,0.0187,0.0102,0.0074,0.0044,-0.0018,-0.0057,-0.0079,-0.0095,-0.0097,-0.0113,-0.0128,-0.0156,-0.016,-0.0101,-0.0101,-0.0101,-0.0155,0,0.0235,0.0269,0.0258,0.0281,0.0296,0.0273,0.0278,0.0273,0.0267,0.0272,0.02,0.0185,0.0104,0.0083,0.0032,-0.0037,-0.0079,-0.0062,-0.0144,-0.0146,-0.0169,-0.0161,-0.0136,-0.0182,-0.0156,-0.0157,-0.0157,0,0.0269,0.029,0.0321,0.0337,0.034,0.0344,0.0368,0.0366,0.0371,0.037,0.0345,0.0303,0.0239,0.0167,0.005,0.0066,-0.0022,-0.009,-0.0094,-0.0129,-0.0177,-0.0193,-0.0186,-0.016,-0.0159,-0.0159,-0.0159,0,0.0307,0.0334,0.0363,0.0366,0.0375,0.0386,0.0386,0.0403,0.043,0.044,0.0471,0.0393,0.036,0.0245,0.0096,0.008,-0.0029,-0.0068,-0.0178,-0.0181,-0.0178,-0.0181,-0.0144,-0.0144,-0.0144,-0.0143,-0.0143,0,0.0348,0.0371,0.0386,0.04,0.0442,0.0424,0.0471,0.0483,0.0514,0.0583,0.0519,0.0553,0.0381,0.0297,0.0145,-0.0016,0.0007,-0.0161,-0.0192,-0.0165,-0.0166,-0.016,-0.0161,-0.0145,-0.0145,-0.0145,-0.0144,0,0.0386,0.0394,0.0426,0.0447,0.0459,0.0484,0.0525,0.0575,0.0598,0.0687,0.0696,0.0673,0.0573,0.0386,0.0207,0.006,-0.01,-0.0167,-0.0127,-0.0153,-0.0249,-0.0248,-0.0282,-0.0283,-0.0284,-0.0285,-0.0286,0,0.0414,0.0434,0.0465,0.0495,0.0506,0.0544,0.0587,0.0615,0.0689,0.0777,0.0836,0.0774,0.0754,0.0465,0.0197,-0.0069,-0.0107,-0.0216,-0.0249,-0.0234,-0.0261,-0.0258,-0.0255,-0.0234,-0.0234,-0.0235,-0.0235,0,0.0465,0.0464,0.0494,0.0557,0.0602,0.0662,0.0732,0.0812,0.088,0.0962,0.1066,0.1053,0.0793,0.0535,0.0161,-0.0012,-0.0173,-0.023,-0.0213,-0.0204,-0.0194,-0.0219,-0.0217,-0.0237,-0.0237,-0.0237,-0.0236,-0.0236,0.0504,0.0532,0.057,0.063,0.0688,0.0793,0.087,0.0977,0.1104,0.1241,0.1218,0.1202,0.0903,0.043,0.0111,-0.021,-0.0193,-0.0301,-0.0298,-0.0296,-0.0282,-0.0274,-0.033,-0.033,-0.033,-0.033,-0.033,0,0.0563,0.0589,0.0647,0.0722,0.0801,0.0824,0.098,0.1072,0.125,0.134,0.1391,0.1126,0.0821,0.0479,-0.0005,-0.0299,-0.0315,-0.038,-0.0338,-0.0333,-0.0329,-0.0316,-0.0374,-0.0375,-0.0376,-0.0377,0,0,0.0596,0.0654,0.0678,0.0811,0.0874,0.1005,0.111,0.1255,0.1351,0.1433,0.1424,0.1339,0.0935,0.0576,0.0172,-0.0103,-0.0148,-0.0152,-0.0083,0.002,0.0027,-0.0247,-0.0217,0,0,0,0,0]}],[{"header":{"parameterUnit":"m.s-1","parameterCategory":2,"la1":30.2991,"la2":30.254,"lo1":-89.0895,"lo2":-89.0444,"dy":0.0017,"dx":0.0017,"nx":28,"ny":28,"refTime":"2023-10-26T21:00:00:Z","depth":"4","parameterNumber":2,"parameterNumberName":"U-component_of_CURRENTS"},"data":[0,0,0,0,0,0,0,0,0,0,0,0,0,0,0,0,0,0,0,0,0,0,0,0,0,0,0,0,0,0,0,0,0,0,0,0,0,0,0,0,0,0,0,0,0,0,0,0,0,0,0,0,0,0,0,0,0,0,0.1309,0.131,0,0.1405,0.1406,0.1408,0.1458,0.1458,0.1458,0.1458,0.1565,0.1568,0.1571,0,0,0,0,0,0,0,0,0,0,0,0,0,0.1311,0.131,0.1309,0.131,0.1311,0.1405,0.1406,0.1408,0.1458,0.1458,0.1458,0.1458,0.1564,0.1568,0.1571,0,0,0,0,0,0,0,0,0,0,0,0,0,0.1351,0.1309,0.1309,0.1345,0.1349,0.1405,0.1407,0.1409,0.1458,0.1458,0.1458,0.1458,0.1563,0.1567,0.1572,0.1605,0,0,0.1586,0.1588,0,0,0,0,0,0,0,0,0.1348,0.1351,0.1339,0.1343,0.1348,0.1417,0.1446,0.1474,0.1458,0.142,0.1458,0.1458,0.1515,0.1524,0.1546,0.161,0.1614,0.1586,0.1589,0.1591,0.1592,0,0,0,0,0,0,0,0.1345,0.1348,0.135,0.134,0.1345,0.1405,0.141,0.1453,0.147,0.1423,0.1426,0.1433,0.1518,0.1541,0.1549,0.1616,0.1586,0.159,0.1593,0.1594,0.1759,0.1761,0,0,0,0,0,0,0.132,0.1344,0.1347,0.1353,0.1344,0.1404,0.141,0.1397,0.147,0.1479,0.1433,0.1435,0.1534,0.1543,0.1553,0.1646,0.1591,0.1595,0.1598,0.1758,0.176,0.1761,0,0,0,0,0,0,0.132,0.1319,0.1343,0.135,0.1357,0.1403,0.139,0.1399,0.145,0.1476,0.1487,0.1476,0.1534,0.1546,0.1603,0.1649,0.1597,0.1601,0.1756,0.1758,0.1761,0.1801,0,0,0,0,0,0,0.1319,0.1318,0.1326,0.1347,0.1355,0.1382,0.139,0.1401,0.1451,0.1455,0.1517,0.1525,0.1535,0.1596,0.1608,0.1654,0.1605,0.1754,0.1757,0.176,0.1798,0.1805,0.1811,0,0,0,0,0,0.1318,0.1317,0.1325,0.1327,0.1355,0.1383,0.1394,0.1429,0.1454,0.1476,0.1515,0.1524,0.1624,0.1601,0.1614,0.1663,0.1752,0.1756,0.176,0.1795,0.1803,0.1811,0,0,0,0,0,0,0.1329,0.1323,0.1332,0.1331,0.136,0.139,0.1424,0.1449,0.1502,0.152,0.1545,0.1556,0.1623,0.1638,0.1611,0.1719,0.1691,0.1698,0.1714,0.1722,0.1728,0.1715,0.1608,0,0,0,0,0,0.1331,0.1328,0.1339,0.1347,0.1362,0.1404,0.1431,0.1454,0.1491,0.1517,0.1556,0.1603,0.1647,0.1678,0.1714,0.1777,0.1797,0.1817,0.1823,0.1829,0.1826,0.1896,0.1909,0.1774,0.1774,0.1774,0,0,0.1343,0.1337,0.1341,0.1351,0.1382,0.1406,0.1421,0.1467,0.1496,0.1521,0.1589,0.163,0.1668,0.173,0.1763,0.1751,0.188,0.1833,0.1838,0.1832,0.1901,0.1915,0.1926,0.1776,0.1776,0.1775,0,0,0.135,0.1357,0.1358,0.1379,0.1417,0.1438,0.1455,0.1502,0.1536,0.16,0.1624,0.1682,0.1761,0.1786,0.1811,0.1877,0.191,0.1908,0.1937,0.2006,0.2017,0.2028,0.2078,0.2092,0.1914,0.1915,0.1915,0,0.137,0.1359,0.1371,0.1381,0.1405,0.1451,0.1474,0.1514,0.1576,0.1616,0.1626,0.1755,0.1781,0.1855,0.1875,0.1892,0.1938,0.1903,0.2014,0.2025,0.2035,0.2083,0.2099,0.1917,0.1917,0.1916,0.1916,0,0.1364,0.138,0.1391,0.1408,0.1438,0.147,0.151,0.1561,0.1617,0.1664,0.1762,0.1803,0.188,0.1904,0.1912,0.2004,0.2016,0.2012,0.1991,0.2051,0.2098,0.2114,0.192,0.192,0.1919,0.1918,0,0,0.1347,0.1378,0.1387,0.1407,0.1456,0.1478,0.1536,0.1601,0.1661,0.1737,0.1821,0.1893,0.1942,0.1971,0.2,0.2053,0.2157,0.2071,0.2074,0.2115,0.2319,0.2168,0.217,0.2191,0.2194,0.2196,0.2327,0,0.1349,0.1361,0.1382,0.1428,0.1446,0.1505,0.1558,0.163,0.1704,0.1798,0.1871,0.1965,0.1961,0.2021,0.2073,0.2145,0.22,0.2122,0.226,0.2263,0.2117,0.2183,0.2205,0.2338,0.2342,0.2344,0.2346,0,0.1326,0.1345,0.1375,0.1439,0.1457,0.1502,0.1599,0.165,0.1782,0.1849,0.1953,0.2027,0.2132,0.2115,0.226,0.2224,0.2275,0.2313,0.2319,0.217,0.2139,0.2266,0.2374,0.2372,0.237,0.2368,0.2366,0,0.1285,0.1336,0.136,0.1382,0.1464,0.1514,0.1571,0.1685,0.1751,0.1898,0.1981,0.2107,0.2199,0.2283,0.2369,0.2344,0.2519,0.2489,0.2394,0.2385,0.2463,0.245,0.2582,0.2582,0.2582,0.2582,0.2581,0,0.125,0.1275,0.1355,0.1376,0.1438,0.1505,0.1593,0.167,0.1806,0.1893,0.2016,0.2104,0.2254,0.237,0.2418,0.2456,0.2567,0.2405,0.241,0.2477,0.2465,0.2474,0.2459,0.2587,0.2585,0.2585,0.2584,0,0.118,0.1232,0.1268,0.1373,0.1419,0.1461,0.1599,0.1654,0.1798,0.1914,0.1976,0.216,0.2296,0.2414,0.2563,0.2507,0.2562,0.2546,0.2623,0.2629,0.2369,0.2355,0.2443,0.2439,0.2435,0.2433,0.243,0,0.1139,0.1152,0.1256,0.1293,0.1348,0.1434,0.1492,0.1636,0.1692,0.1922,0.1965,0.217,0.227,0.2365,0.2484,0.2568,0.2537,0.254,0.2423,0.2359,0.2357,0.2349,0.234,0.2424,0.2423,0.2423,0.2422,0,0.1073,0.1114,0.1153,0.1225,0.1292,0.1343,0.1442,0.1485,0.1646,0.1796,0.1923,0.2028,0.2173,0.2283,0.237,0.2418,0.252,0.2502,0.2508,0.2398,0.2338,0.2337,0.2333,0.2409,0.2411,0.2412,0.2413,0,0.1034,0.1031,0.1094,0.1143,0.1211,0.1237,0.13,0.1385,0.1476,0.172,0.1763,0.1976,0.2149,0.2209,0.2292,0.2327,0.2282,0.2194,0.2215,0.223,0.2098,0.1985,0.1962,0,0,0,0,0,0.0992,0.0979,0.1012,0.105,0.11,0.1149,0.1258,0.1324,0.1488,0.1527,0.1647,0.1773,0.1914,0.203,0.2026,0.2193,0.2284,0.2177,0.2189,0.2341,0.2355,0.2218,0,0,0,0,0,0,0.0967,0.0985,0.0978,0.096,0.0972,0.1017,0.1085,0.1198,0.123,0.1417,0.1508,0.1654,0.182,0.1904,0.1991,0.2024,0.1992,0.2309,0.2304,0.2333,0.2346,0.2357,0.2222,0,0,0,0,0]},{"header":{"parameterUnit":"m.s-1","parameterCategory":2,"la1":30.2991,"la2":30.254,"lo1":-89.0895,"lo2":-89.0444,"dy":0.0017,"dx":0.0017,"nx":28,"ny":28,"refTime":"2023-10-26T21:00:00:Z","depth":"4","parameterNumber":3,"parameterNumberName":"V-component_of_CURRENTS"},"data":[0,0,0,0,0,0,0,0,0,0,0,0,0,0,0,0,0,0,0,0,0,0,0,0,0,0,0,0,0,0,0,0,0,0,0,0,0,0,0,0,0,0,0,0,0,0,0,0,0,0,0,0,0,0,0,0,0,0,0.0267,0.0267,0,0.0243,0.0243,0.0242,0.022,0.022,0.022,0.022,0.014,0.0137,0.0135,0,0,0,0,0,0,0,0,0,0,0,0,0,0.0218,0.0219,0.0267,0.0267,0.0267,0.0244,0.0243,0.0242,0.022,0.022,0.022,0.022,0.014,0.0138,0.0135,0,0,0,0,0,0,0,0,0,0,0,0,0,0.0218,0.022,0.0267,0.0257,0.0256,0.0244,0.0243,0.0242,0.022,0.022,0.022,0.022,0.0141,0.0138,0.0135,0.011,0,0,0.0124,0.0123,0,0,0,0,0,0,0,0,0.0218,0.0219,0.0258,0.0257,0.0256,0.0239,0.0196,0.0196,0.022,0.0229,0.022,0.022,0.017,0.0164,0.0154,0.0106,0.0103,0.0124,0.0122,0.012,0.0119,0,0,0,0,0,0,0,0.0218,0.0219,0.0253,0.0258,0.0257,0.0228,0.0228,0.0196,0.0194,0.0228,0.0227,0.0232,0.0169,0.0157,0.0152,0.0102,0.0124,0.0121,0.0119,0.0118,0.0073,0.0074,0,0,0,0,0,0,0.0234,0.022,0.0254,0.0253,0.0242,0.0229,0.0229,0.0241,0.0196,0.0191,0.0232,0.0231,0.0163,0.0156,0.0149,0.016,0.012,0.0117,0.0115,0.0072,0.0073,0.0074,0,0,0,0,0,0,0.0233,0.0237,0.0255,0.0239,0.024,0.0231,0.0243,0.024,0.0236,0.02,0.0193,0.0232,0.0163,0.0154,0.0137,0.0155,0.0116,0.0113,0.0071,0.0072,0.0073,0.0155,0,0,0,0,0,0,0.0231,0.0237,0.0246,0.024,0.0241,0.0257,0.0243,0.024,0.024,0.0239,0.0198,0.019,0.0162,0.0143,0.0134,0.015,0.011,0.007,0.0071,0.0073,0.0152,0.0159,0.0166,0,0,0,0,0,0.023,0.0249,0.0247,0.0251,0.0256,0.0258,0.0256,0.0246,0.024,0.0241,0.0221,0.0192,0.0147,0.0141,0.013,0.0146,0.0069,0.0071,0.0073,0.0148,0.0158,0.0166,0,0,0,0,0,0,0.0231,0.0249,0.0246,0.0269,0.0267,0.0257,0.0258,0.0251,0.0235,0.0234,0.0197,0.0189,0.0181,0.0151,0.0146,0.0138,0.0105,0.0105,0.0166,0.0174,0.0181,0.0183,0.0107,0,0,0,0,0,0.0237,0.0258,0.0261,0.0278,0.0279,0.0268,0.0267,0.0263,0.0251,0.0244,0.0219,0.0194,0.0179,0.0168,0.0143,0.0134,0.0085,0.0139,0.0146,0.0153,0.0148,0.0093,0.0094,0.008,0.008,0.008,0,0,0.0241,0.0255,0.0264,0.028,0.0275,0.0285,0.0267,0.0273,0.0283,0.0237,0.0237,0.0213,0.0181,0.0178,0.0172,0.0158,0.0133,0.0155,0.0161,0.0152,0.0095,0.0096,0.0097,0.0081,0.0081,0.0081,0,0,0.0259,0.0272,0.0291,0.0295,0.0302,0.0299,0.0306,0.0299,0.0298,0.0297,0.0272,0.0265,0.023,0.0221,0.021,0.0239,0.017,0.023,0.0269,0.0216,0.0217,0.0216,0.0161,0.0155,0.0236,0.0236,0.0237,0,0.0261,0.0291,0.0293,0.0312,0.0322,0.0311,0.0329,0.0328,0.0318,0.0319,0.0308,0.0274,0.0254,0.0254,0.0273,0.0256,0.0205,0.0241,0.0225,0.0223,0.0222,0.0165,0.0157,0.0241,0.024,0.024,0.0239,0,0.029,0.0314,0.0326,0.035,0.0358,0.0374,0.0378,0.0381,0.0379,0.0375,0.0371,0.0344,0.0323,0.0325,0.031,0.0297,0.0258,0.0238,0.0203,0.0228,0.0167,0.0157,0.0247,0.0245,0.0244,0.0243,0,0,0.03,0.0339,0.0345,0.0366,0.0383,0.0397,0.0416,0.043,0.0445,0.0429,0.0435,0.0427,0.0403,0.039,0.0367,0.0333,0.0293,0.0286,0.0281,0.0231,0.0162,0.0155,0.0143,0.026,0.0259,0.0258,0.0126,0,0.0321,0.037,0.0382,0.0426,0.0449,0.0451,0.047,0.0481,0.0483,0.0483,0.0459,0.0454,0.0431,0.0425,0.0388,0.0314,0.027,0.033,0.0144,0.0139,0.0129,0.0133,0.0254,0.0119,0.0116,0.0115,0.0113,0,0.0345,0.038,0.0428,0.0473,0.0483,0.0506,0.0538,0.0552,0.0549,0.0548,0.0532,0.0501,0.0466,0.0437,0.0313,0.0345,0.0259,0.0198,0.019,0.0145,0.0114,0.0085,0.0095,0.0097,0.0098,0.0099,0.01,0,0.0361,0.0412,0.0457,0.0473,0.0517,0.0539,0.0558,0.0571,0.0596,0.0584,0.059,0.053,0.0503,0.039,0.0278,0.0281,0.0123,0.0109,0.0017,0.0015,0.0023,0.0025,0.0005,0.0005,0.0005,0.0005,0.0006,0,0.0384,0.0422,0.0471,0.0501,0.0553,0.0567,0.062,0.0626,0.0643,0.0669,0.0621,0.0613,0.0486,0.039,0.0272,0.0118,0.0111,0.0016,-0.002,0.0062,0.007,0.0016,0.0019,0.0,0.0002,0.0003,0.0003,0,0.0393,0.0426,0.0483,0.0542,0.0565,0.06,0.0671,0.0702,0.0709,0.0735,0.0732,0.0666,0.0535,0.0398,0.0213,0.012,-0.0029,-0.0086,0.0012,-0.0016,-0.0106,-0.0097,-0.021,-0.0212,-0.0213,-0.0214,-0.0215,0,0.0404,0.0435,0.0514,0.0553,0.0585,0.0648,0.069,0.0731,0.0766,0.0766,0.0769,0.0667,0.0602,0.0336,0.0186,-0.0051,-0.0078,-0.0161,-0.013,-0.0105,-0.0129,-0.0118,-0.0108,-0.0217,-0.0217,-0.0217,-0.0217,0,0.0424,0.045,0.0499,0.0576,0.0636,0.0708,0.077,0.0801,0.0834,0.0848,0.0797,0.0673,0.0523,0.033,0.015,-0.0016,-0.0107,-0.0174,-0.0172,-0.0144,-0.0114,-0.0134,-0.0123,-0.0221,-0.0221,-0.0221,-0.022,0,0.0437,0.0465,0.0527,0.0593,0.0666,0.073,0.0775,0.081,0.0845,0.0842,0.0819,0.0669,0.059,0.0345,0.0179,0.0018,-0.0025,-0.0075,-0.008,-0.0077,0.001,0.0071,-0.0017,0,0,0,0,0,0.0444,0.0475,0.0537,0.0611,0.068,0.0729,0.0806,0.0844,0.0878,0.0846,0.0839,0.07,0.046,0.0357,0.0191,0.0143,-0.0061,-0.0057,-0.0122,-0.0244,-0.0239,-0.0159,0,0,0,0,0,0,0.0452,0.0505,0.0531,0.0609,0.0657,0.0743,0.0795,0.0827,0.0813,0.0818,0.0692,0.0651,0.0414,0.0549,0.0183,0.0136,0.007,-0.0162,-0.0165,-0.0246,-0.0242,-0.0238,-0.0155,0,0,0,0,0]}]]